Flag for Germany Weather past 2 weeks in Norden, Lower Saxony, Germany

Now
58 °F

Clear.


Feels Like: 56 °F
Forecast: 55 / 62 °F
Wind: 8 mph from Southwest

Location: Norderney

Current Time: Sep 3, 2015 at 9:48:09 PM

Latest Report: Sep 3, 2015 at 9:00 PM


Visibility: 44 mi

Pressure: 29.86 "Hg

Humidity: 71%

Dew point: 48 °F

Location of NordenLocation

Historic Weather in Norden — Graph

°F

Norden temperature yesterday

Maximum temperature yesterday: 63 °F (at 4:00 PM)
Minimum temperature yesterday: 57 °F (at 11:00 PM)
Average temperature yesterday: 60 °F

Past Weeks' High & Low Weather Summary

 TemperatureHumidityPressure
High77 °F (Aug 22, 4:00 PM)99% (Aug 31, 9:00 AM)30.25 "Hg (Aug 31, 9:00 AM)
Low56 °F (Sep 3, 4:00 AM)36% (Aug 22, 3:00 PM)29.47 "Hg (Aug 24, 7:00 PM)
Average64 °F75%29.94 "Hg
* Reported Aug 19 9:00 PM — Sep 3 9:00 PM, Norden, Weather by CustomWeather, © 2015

Note: Actual official high and low records may vary slightly from our data, if they occured in-between our weather recording intervals... More about our weather records

Advertising

Norden weather history for previous 24 hours

 ConditionsComfort  
Time TempWeatherWind HumidityBarometerVisibility
9:00 PM
Thu, Sep 3
58 °FClear.8 mph71%29.86 "Hg43 mi
8:00 PM59 °FOvercast.8 mph66%29.85 "Hg43 mi
7:00 PM61 °FPartly sunny.6 mph63%29.86 "Hg17 mi
6:00 PM60 °FScattered clouds.6 mph64%29.86 "Hg28 mi
5:00 PM61 °FOvercast.7 mph60%29.87 "Hg16 mi
4:00 PM61 °FOvercast.7 mph61%29.87 "Hg12 mi
3:00 PM61 °FPartly sunny.8 mph63%29.87 "Hg9 mi
2:00 PM62 °FPassing clouds.8 mph64%29.87 "Hg6 mi
1:00 PM60 °FSunny.8 mph63%29.87 "Hg8 mi
12:00 PM60 °FScattered clouds.8 mph70%29.88 "Hg12 mi
11:00 AM59 °FPassing clouds.7 mph72%29.89 "Hg6 mi
10:00 AM57 °FScattered clouds.7 mph76%29.89 "Hg12 mi
9:00 AM56 °FOvercast.7 mph77%29.89 "Hg31 mi
8:00 AM56 °FScattered clouds.7 mph78%29.89 "Hg31 mi
7:00 AM57 °FOvercast.6 mph82%29.89 "Hg31 mi
5:00 AM56 °FPassing clouds.8 mph82%29.89 "Hg14 mi
4:00 AM56 °FOvercast.7 mph86%29.90 "Hg25 mi
3:00 AM57 °FPassing clouds.9 mph79%29.90 "Hg22 mi
2:00 AM57 °FPassing clouds.7 mph80%29.91 "Hg19 mi
1:00 AM58 °FPassing clouds.8 mph75%29.92 "Hg25 mi
11:00 PM
Wed, Sep 2
57 °FLight rain. Overcast.8 mph80%29.93 "Hg8 mi
10:00 PM58 °FOvercast.7 mph79%29.93 "Hg31 mi
9:00 PM59 °FOvercast.7 mph75%29.93 "Hg34 mi
Weather by CustomWeather, © 2015

See weather overviewHow to use our weather pages